Back to catalog

STARLINK-3107

AliveCommunicationsVLEO
NORAD 49171·PAYLOAD·🇺🇸 United States

Launched Sep 14, 2021 from Vandenberg Space Force Base

Loading…

Next Passes (next 24 hours)

TLE

FreshSource: CelesTrak SupGP

Epoch: Sep 14, 2026, 12:57 UTC

1 49171C 21082AT  26257.54006944  .00056280  00000+0  28357-2 0  2573
2 49171  69.9946 159.7289 0006686 275.1635 245.5578 15.17021704    18

Track STARLINK-3107 in real time with AllMySat

Download on the App Store